Location: Ajinopa
(8.2500°N, 4.2167°E)
Time: 07:07:21
(UTC+00:00)

Daily predictions for brighter satellites

Satellite Brightness Start Highest point End
(mag) Time Altitude Azimuth Time Altitude Azimuth Time Altitude Azimuth
Geosat 4.0 17:35:13 10° NNE 17:40:14 85° ESE 17:45:15 10° SSW
Ariane H10+ 2.6 17:37:17 10° WSW 17:40:18 42° S 17:47:46 10° ESE
USA 229 DEB 4.2 17:35:00 10° NNW 17:42:42 83° WSW 17:50:30 10° SSE
USA 229 4.2 17:35:06 10° NNW 17:42:48 84° WSW 17:50:35 10° SSE
NOAA 11 4.4 17:39:39 10° SSE 17:44:55 50° ENE 17:50:10 10° N
Cosmos 1315 Rocket 3.4 17:41:28 10° SSE 17:45:03 35° E 17:48:38 10° NNE
Hubble Space Telescope 2.2 17:44:11 10° NNW 17:47:26 22° NNE 17:50:41 10° ENE
Cosmos 1953 Rocket 3.6 17:48:00 10° N 17:52:21 57° E 17:56:45 10° SSE
SWIFT 3.5 17:49:29 10° NW 17:53:12 29° NNE 17:56:37 12° ENE
NOSS 3-1 (A) 4.5 17:47:54 10° NNW 17:56:39 86° WSW 18:05:41 10° SSE
Cosmos 1980 Rocket 2.3 17:52:09 10° S 17:57:42 58° ESE 18:03:12 10° NNE
Delta 7925 Rocket 4.1 17:51:49 10° WSW 17:58:41 62° NNW 18:03:50 11° NE
FengYun 1-2 T 4.3 17:57:34 10° SSE 18:03:14 88° WSW 18:08:53 10° NNW
S3M 3.9 17:58:01 10° S 18:04:05 73° E 18:10:09 10° N
Okean O Rocket 3.8 18:07:36 10° SSW 18:11:26 30° W 18:15:15 10° NW
CZ-3B R/B 4.3 17:53:31 10° SSW 18:11:57 33° SE 18:16:00 18° E
YAOGAN 1 3.6 18:09:40 10° SE 18:13:07 24° ENE 18:16:34 10° NNE
Cosmos 1340 2.9 18:11:23 10° N 18:15:00 44° E 18:18:36 10° SSE
GPS 2-12 Rocket1 3.7 18:11:47 10° NW 18:15:53 37° NNE 18:18:01 23° ENE
Cosmos-2242 4.0 18:13:12 10° SSE 18:16:38 24° E 18:17:31 23° ENE
Cosmos 2297 Rocket 3.2 18:14:48 10° NNE 18:19:06 22° ENE 18:20:17 21° E
MOS 1 Rocket 3.5 18:14:29 10° NNE 18:19:31 83° E 18:24:50 10° S
Cosmos 1812 Rocket 3.5 18:15:17 10° S 18:19:43 77° E 18:24:07 10° N
Cosmos 1455 2.6 18:17:05 10° SSW 18:20:46 63° W 18:24:27 10° N
In-Cosmos 22 Rocket 4.2 18:16:32 10° N 18:21:54 57° E 18:27:25 10° SSE
GPS 2-14 Rocket1 4.0 18:18:27 10° NW 18:21:58 26° NNE 18:23:11 22° NE
USA 281 3.6 18:15:52 10° S 18:22:21 66° WSW 18:28:51 10° NNW
CZ-2C R/B 3.8 18:17:16 10° SE 18:22:32 37° ENE 18:27:49 10° N
Cosmos 2278 4.2 18:21:30 10° SSW 18:27:07 63° WNW 18:32:44 10° N
Cosmos 2322 Rocket 3.8 18:25:50 10° SE 18:28:14 17° ESE 18:28:14 17° ESE
Cosmos 1939 Rocket 3.3 18:25:55 10° S 18:29:56 63° W 18:33:53 10° NNW
SL-08 ROCKET BODY 4.4 18:25:56 10° N 18:31:59 59° E 18:38:03 10° SSE
CZ-4 R/B 4.5 18:30:48 10° S 18:34:56 81° W 18:39:04 10° NNW
Helios 1A Rocket 2.8 18:33:14 10° SSE 18:37:23 86° ENE 18:41:29 10° N
Timation 2 Rocket 4.1 18:31:09 10° N 18:37:54 66° ENE 18:44:43 10° SSE
Okean-O 2.5 18:40:36 10° SSE 18:45:01 88° WSW 18:49:27 10° NNW
Cosmos 2219 3.2 18:43:55 10° N 18:49:30 53° ENE 18:55:03 10° SSE
BREEZE-M DEB (TANK) 3.9 18:42:56 10° SSW 18:51:49 36° SE 18:52:23 35° SE
CZ-4 R/B 1.7 18:50:07 10° S 18:54:05 64° WSW 18:57:57 10° NNW
H-2A R/B 3.0 18:50:14 10° SSE 18:58:51 21° N 19:00:35 10° N
CZ-2C R/B 2.2 18:54:14 10° SW 18:57:26 38° S 18:57:26 38° S
ATLAS 3B CENTAUR R/B 4.5 18:54:31 10° S 18:59:52 23° SE 19:00:38 23° SE
Cosmos 192 4.4 18:59:10 10° S 19:03:22 62° SSE 19:03:22 62° SSE
CSL-04 Rocket 4.2 18:59:07 10° SSE 19:07:42 26° N 19:10:05 10° N
SL-16 R/B 2.3 18:59:38 10° S 19:04:35 56° SE 19:04:35 56° SE
Spelda 3.6 19:06:24 10° WSW 19:10:56 37° SSW 19:10:56 37° SSW
CZ-2C R/B 2.7 19:11:03 40° N 19:12:57 72° WNW 19:18:10 10° SSW
Cosmos 2058 4.1 19:17:22 39° WSW 19:17:22 39° WSW 19:20:44 10° SSW
Cosmos 2227 Rocket 3.6 19:17:34 10° NNW 19:19:55 26° NNW 19:19:55 26° NNW
Hubble Space Telescope 3.0 19:24:35 10° WNW 19:26:12 22° WNW 19:26:12 22° WNW
ARIANE 5 R/B 4.5 15:14:16 10° W 19:52:50 42° SSW 19:56:06 35° SSE
Centaur AC-72 4.3 19:29:44 10° W 20:02:37 52° N 20:02:54 52° N
Cosmos 2297 Rocket 4.1 19:58:18 10° NW 20:02:29 25° W 20:02:29 25° W
Cosmos 2322 Rocket 4.4 20:08:13 10° SW 20:10:08 20° WSW 20:10:08 20° WSW
